Regional Weather Roundup
Issued by NWS Upton, NY

Current Version | Previous Version | Text Only | Print | Product List | Glossary On
Versions: 1 2 3 4 5 6 7 8 9 10 11 12 13 14 15 16 17 18 19 20 21 22 23 24 25 26 27 28 29 30 31 32 33 34 35 36 37 38 39 40 41 42 43 44 45 46 47 48 49 50
000 ASUS41 KOKX 050604 RWROKX REGIONAL WEATHER ROUNDUP NATIONAL WEATHER SERVICE NEW YORK NY 200 AM EDT WED AUG 05 2015 NOTE: "FAIR" INDICATES FEW OR NO CLOUDS BELOW 12,000 FEET WITH NO SIGNIFICANT WEATHER AND/OR OBSTRUCTIONS TO VISIBILITY. NYZ071-072-176-178-NJZ106-104-050700- NEW YORK CITY METRO AREA CITY SKY/WX TMP DP RH WIND PRES REMARKS CENTRAL PARK PTCLDY 75 55 49 CALM 29.94S LAGUARDIA APRT PTCLDY 77 58 51 CALM 29.90F KENNEDY INTL MOCLDY 77 56 48 N5 29.91F NEWARK/LIBERTY PTCLDY 74 59 59 N5 29.91S BRNX BOT. GARD N/A 70 55 60 CALM 29.91S TETERBORO PTCLDY 72 57 59 SW3 29.90F $$ NYZ177-179-078>081-050700- LONG ISLAND NEW YORK CITY SKY/WX TMP DP RH WIND PRES REMARKS FARMINGDALE PTCLDY 73 58 59 N5 29.91S ISLIP PTCLDY 70 58 65 CALM 29.89S SHIRLEY PTCLDY 65 58 78 CALM 29.91S WESTHAMPTON PTCLDY 61 57 87 NW5 29.92S MONTAUK POINT N/A 69 65 86 CALM 29.91F $$ NYZ052-065-067-050700- HUDSON VALLEY CITY SKY/WX TMP DP RH WIND PRES REMARKS WHITE PLAINS PTCLDY 67 59 75 CALM 29.92R NEWBURGH CLEAR 64 59 82 CALM 29.93 MONTGOMERY PTCLDY 61 57 87 CALM 29.92F POUGHKEEPSIE CLEAR 64 60 87 CALM 29.90F ALBANY PTCLDY 64 57 78 N5 29.91S $$ NJZ001-105-106-008-010-013-015-019>022-104-050700- NEW JERSEY CITY SKY/WX TMP DP RH WIND PRES REMARKS NEWARK/LIBERTY PTCLDY 74 59 59 N5 29.91S TETERBORO PTCLDY 72 57 59 SW3 29.90F CALDWELL PTCLDY 67 58 72 CALM 29.93S MORRISTOWN CLEAR 61 55 82 CALM 29.93S SOMERVILLE PTCLDY 62 58 86 CALM 29.91R SUSSEX PTCLDY 61 58 90 CALM 29.93F ANDOVER N/A 61 61 100 CALM 29.94F TRENTON MOCLDY 69 57 65 NW3 29.93R MILLVILLE LGT RAIN 73 71 93 NE6 29.94S ATLANTIC CITY LGT RAIN 74 72 93 SW8 29.95R FOG WRIGHTSTOWN PTCLDY 73 58 60 CALM 29.90S TOMS RIVER N/A 66 64 94 CALM 29.92F BELMAR PTCLDY 72 55 56 CALM 29.92S $$ PAZ047>061-062-071-050700- EASTERN PENNSYLVANIA CITY SKY/WX TMP DP RH WIND PRES REMARKS PHILADELPHIA MOCLDY 80 52 37 CALM 29.93S ALLENTOWN CLEAR 61 56 83 CALM 29.94S SCRANTON PTCLDY 64 56 75 SE5 29.94F $$ CTZ002-004>006-009-010-012-RIZ004-006-007-MAZ004-011-015-050700- SOUTHERN NEW ENGLAND IN CT CITY SKY/WX TMP DP RH WIND PRES REMARKS BRADLEY INTL MOCLDY 66 60 81 NW6 29.89F HARTFORD CLEAR 67 64 90 SE3 29.90F DANBURY PTCLDY 63 58 83 SW3 29.93F WTRBRY/OXFORD CLEAR 63 54 72 CALM 29.94S BRIDGEPORT PTCLDY 72 61 68 CALM 29.90F MERIDEN CLEAR 63 60 90 CALM 29.90F NEW HAVEN CLEAR 66 61 84 CALM 29.91S CHESTER FAIR 66 61 82 CALM 29.92S GROTON CLEAR 68 65 90 CALM 29.90S WILLIMANTIC FOG 65 63 93 CALM 29.91F VSB 1 IN RI CITY SKY/WX TMP DP RH WIND PRES REMARKS PROVIDENCE CLEAR 69 63 81 W6 29.90S BLOCK ISLAND N/A 70 66 88 W5 29.91R WESTERLY CLEAR 67 64 90 CALM 29.91S IN MA CITY SKY/WX TMP DP RH WIND PRES REMARKS BOSTON PTCLDY 71 62 73 W7 29.88S WORCESTER PTCLDY 64 57 78 W9 29.92F WESTFIELD CLEAR 61 60 97 SE3 29.90F PROVINCETOWN CLEAR 64 57 77 W3 29.88S NANTUCKET FOG 72 71 97 W9 29.89R VSB 3/4 $$ ANZ330-335-338-340-345-350-353-355-050700- COASTAL MARINE OBSERVATIONS STATION/POSITION TIME SKY/WX TEMP WIND PRES VSBY WAVE AIR SEA DIR/SP/G HT/PER (UTC) (F) (DEG/KT/KT) (MB) (MI) (FT/S) NY HARB ENTRANCE 0450 77 75 280/ 6/ 6 1012.2 4/ 8 4S FIRE IS NOT AVBL 20S FIRE ISLAND 0450 77 75 240/ 12/ 14 1012.2 6/ 8 GREAT SOUTH BAY 0500 76 81 340/ 4/ 6 N/A 23SW MTP 0550 74 74 300/ 6/ 8 1011.8 5/ 8 HUDSON CANYON NOT AVBL KINGS POINT 0500 75 70 CALM / 4 1012.2 EXECUTION ROCKS 0500 74 CALM / 2 N/A CENTRAL LI SOUND NOT AVBL EASTERN LI SOUND 0500 71 69 310/ 4/ 6 N/A ROBBINS REEF 0500 78 360/ 4/ 5 1011.8 $$ >>>>>>>>>>>>>>>>>>>>>>>>>>>> KEY <<<<<<<<<<<<<<<<<<<<<<<<<<< > < > SKY/WX - SKY CONDITION/PRESENT WEATHER < > TMP - TEMPERATURE IN FAHRENHEIT < > DP - DEWPOINT IN FAHRENHEIT < > RH - RELATIVE HUMIDITY IN PERCENT < > WIND - DIRECTION AND SPEED IN MPH < > PRES - MEAN SEA LEVEL PRESSURE IN INCHES OF HG < > WCI - WIND CHILL INDEX < > VSB - VISIBILITY IN MILES < > HX - HEAT INDEX < > TC - TEMPERATURE IN CELSIUS < > VRB - VARIABLE WIND DIRECTION < > < >>>>>>>>>>>>>>>>>>>>>>>>>>>> KEY <<<<<<<<<<<<<<<<<<<<<<<<<<<

USA.gov is the U.S. government's official web portal to all federal, state and local government web resources and services.